Lid_Strength_Index
3 3 3 4 3 3 3 3 1 3 7 9 7 4 2 3 3 3 4 5 6 9 9 10 8 9 11 11
4 4 4 4 4 3 3 3 2 5 9 4 7 6 5 6 3 3 3 4 5 7 8 8 9 11 12 15
4 4 4 4 3 2 3 2 4 6 9 3 6 6 6 6 5 3 3 2 5 8 8 11 13 13 16 15
4 4 5 4 3 4 4 3 3 8 7 9 8 7 7 5 6 5 6 6 9 11 12 13 17 15 15 14
4 5 6 11 13 13 12 13 11 11 10 8 6 8 7 5 6 8 10 9 12 14 12 11 11 12 13 14
5 5 9 12 12 12 13 9 9 9 8 7 9 8 7 8 9 12 10 11 13 10 9 9 10 11 13 13
5 9 11 11 8 8 14 11 9 9 8 7 8 9 8 9 11 12 12 13 10 8 9 10 11 11 12 12
10 12 11 9 8 9 17 13 11 8 7 7 9 7 7 9 10 12 11 12 9 9 10 11 10 13 10 10
14 12 10 10 9 10 20 11 10 7 10 11 12 11 8 9 11 11 12 12 11 11 12 11 10 11 9 10
10 9 10 10 10 16 20 14 12 13 13 12 12 11 11 10 10 11 12 12 9 10 12 10 11 10 10 10
13 9 9 12 17 20 12 15 14 13 14 15 14 14 13 14 15 17 17 14 13 12 11 13 11 11 12 18
9 8 10 13 18 14 14 12 13 14 15 15 16 15 15 16 14 15 17 18 18 14 13 14 16 15 13 17
7 8 12 18 17 15 13 14 14 17 17 16 16 17 16 15 15 15 18 18 17 13 13 13 13 15 17 14
7 8 13 15 14 12 12 13 17 15 18 18 18 18 18 15 15 14 14 17 20 15 14 12 12 14 13 16
8 11 16 15 12 12 12 15 15 16 17 18 17 17 17 15 14 14 14 16 18 18 15 16 16 15 16 14
14 13 15 13 9 13 12 14 14 15 16 16 17 17 17 15 12 13 16 15 18 21 19 14 13 14 14 14
16 15 13 12 10 12 14 14 14 14 14 17 18 16 15 12 11 13 14 14 18 24 21 18 14 16 14 14